TimeEDT,TemperatureF,Dew PointF,Humidity,Sea Level PressureIn,VisibilityMPH,Wind Direction,Wind SpeedMPH,Gust SpeedMPH,PrecipitationIn,Events,Conditions,WindDirDegrees,DateUTC
12:53 AM,73.9,71.1,91,30.16,10.0,South,5.8,-,N/A,,Clear,180,2013-07-03 04:53:00
1:53 AM,73.9,71.1,91,30.17,10.0,South,3.5,-,N/A,,Partly Cloudy,180,2013-07-03 05:53:00
2:53 AM,73.9,70.0,87,30.17,10.0,South,5.8,-,N/A,,Overcast,170,2013-07-03 06:53:00
3:53 AM,73.0,70.0,90,30.17,10.0,South,8.1,-,N/A,,Scattered Clouds,170,2013-07-03 07:53:00
4:53 AM,73.0,70.0,90,30.18,10.0,South,6.9,-,N/A,,Overcast,190,2013-07-03 08:53:00
5:53 AM,73.0,70.0,90,30.19,10.0,South,9.2,-,N/A,,Clear,180,2013-07-03 09:53:00
6:00 AM,73.4,69.8,88,30.19,10.0,South,10.4,-,N/A,,Partly Cloudy,190,2013-07-03 10:00:00
6:53 AM,73.9,70.0,87,30.21,10.0,SSW,9.2,-,N/A,,Scattered Clouds,200,2013-07-03 10:53:00
7:53 AM,75.0,70.0,84,30.22,10.0,South,6.9,-,N/A,,Partly Cloudy,190,2013-07-03 11:53:00
8:53 AM,75.0,70.0,84,30.23,10.0,SSW,6.9,-,N/A,,Clear,200,2013-07-03 12:53:00
9:53 AM,77.0,71.1,82,30.22,10.0,SSW,4.6,-,N/A,,Clear,200,2013-07-03 13:53:00
10:53 AM,82.9,72.0,69,30.22,10.0,WSW,8.1,-,N/A,,Clear,240,2013-07-03 14:53:00
11:53 AM,84.0,71.1,65,30.21,10.0,SSW,9.2,16.1,N/A,,Mostly Cloudy,210,2013-07-03 15:53:00
12:53 PM,84.9,72.0,65,30.20,10.0,South,8.1,-,N/A,,Mostly Cloudy,190,2013-07-03 16:53:00
1:53 PM,84.9,71.1,63,30.19,10.0,SSW,6.9,18.4,N/A,,Partly Cloudy,210,2013-07-03 17:53:00
2:53 PM,84.0,73.0,69,30.18,10.0,SSW,10.4,-,N/A,,Mostly Cloudy,200,2013-07-03 18:53:00
3:53 PM,84.0,72.0,67,30.17,10.0,South,6.9,-,N/A,,Overcast,190,2013-07-03 19:53:00
4:53 PM,84.9,72.0,65,30.15,10.0,South,11.5,-,N/A,,Scattered Clouds,180,2013-07-03 20:53:00
5:53 PM,84.0,72.0,67,30.16,10.0,SSW,8.1,16.1,N/A,,Partly Cloudy,200,2013-07-03 21:53:00
6:53 PM,82.9,73.0,72,30.17,10.0,South,8.1,-,N/A,,Scattered Clouds,190,2013-07-03 22:53:00
7:53 PM,81.0,73.0,77,30.17,10.0,South,9.2,-,N/A,,Scattered Clouds,190,2013-07-03 23:53:00
8:53 PM,79.0,72.0,79,30.19,10.0,South,6.9,-,N/A,,Clear,190,2013-07-04 00:53:00
9:53 PM,77.0,72.0,84,30.21,10.0,SSW,5.8,-,N/A,,Clear,200,2013-07-04 01:53:00
10:53 PM,75.9,72.0,87,30.20,10.0,South,8.1,-,N/A,,Clear,170,2013-07-04 02:53:00
11:53 PM,75.9,72.0,87,30.20,10.0,South,5.8,-,N/A,,Clear,170,2013-07-04 03:53:00